| time (UTC) | temp C | wind direction | speed KPH | gust KPH | rain 1hr cm | rain 24hr cm | rain mn cm | humidity % | barometer mb |
| 20260504003224 | 18 | 0.0 | 0.0 | 0.00 | 0.00 | 0.00 | 45 | 1003.7 | |
| 20260504000423 | 18 | 0.0 | 0.0 | 0.00 | 0.00 | 0.00 | 43 | 1003.5 | |
| 20260503230423 | 20 | 0.0 | 0.0 | 0.00 | 0.00 | 0.00 | 42 | 1003.7 | |
| 20260503223222 | 20 | 0.0 | 0.0 | 0.00 | 0.00 | 0.00 | 41 | 1003.9 | |
| 20260503220422 | 20 | 0.0 | 0.0 | 0.00 | 0.00 | 0.00 | 41 | 1003.9 | |
| 20260503213224 | 19 | 0.0 | 0.0 | 0.00 | 0.00 | 0.00 | 41 | 1004.4 | |
| 20260503210423 | 18 | 0.0 | 0.0 | 0.00 | 0.00 | 0.00 | 45 | 1004.7 | |
| 20260503203224 | 18 | 0.0 | 0.0 | 0.00 | 0.00 | 0.00 | 46 | 1005.6 | |
| 20260503200422 | 18 | 0.0 | 0.0 | 0.00 | 0.00 | 0.00 | 42 | 1005.8 | |
| 20260503193222 | 18 | 0.0 | 0.0 | 0.00 | 0.00 | 0.00 | 40 | 1005.8 | |
| 20260503190423 | 18 | 0.0 | 0.0 | 0.00 | 0.00 | 0.00 | 42 | 1006.2 | |
| 20260503180422 | 16 | 0.0 | 0.0 | 0.00 | 0.00 | 0.00 | 52 | 1007.3 | |
| 20260503173224 | 15 | 0.0 | 0.0 | 0.00 | 0.00 | 0.00 | 53 | 1008.0 | |
| 20260503170422 | 13 | 0.0 | 0.0 | 0.00 | 0.00 | 0.00 | 55 | 1008.6 | |
| 20260503150422 | 13 | 0.0 | 0.0 | 0.00 | 0.00 | 0.00 | 48 | 1009.4 | |
| 20260503130422 | 11 | 0.0 | 0.0 | 0.00 | 0.00 | 0.00 | 51 | 1010.4 | |
| 20260503110422 | 9 | 0.0 | 0.0 | 0.00 | 0.00 | 0.00 | 50 | 1010.5 | |
| 20260503090423 | 9 | 0.0 | 0.0 | 0.00 | 0.00 | 0.00 | 47 | 1011.1 | |
| 20260503080422 | 9 | 0.0 | 0.0 | 0.00 | 0.00 | 0.00 | 48 | 1011.7 | |
| 20260503070422 | 8 | 0.0 | 0.0 | 0.00 | 0.00 | 0.00 | 51 | 1012.1 | |
| 20260503053223 | 7 | 0.0 | 0.0 | 0.00 | 0.00 | 0.00 | 55 | 1012.9 | |
| 20260503050422 | 7 | 0.0 | 0.0 | 0.00 | 0.00 | 0.00 | 55 | 1013.1 | |
| 20260503043224 | 8 | 0.0 | 0.0 | 0.00 | 0.00 | 0.00 | 56 | 1013.2 | |
| 20260503040423 | 8 | 0.0 | 0.0 | 0.00 | 0.00 | 0.00 | 57 | 1013.4 | |
| 20260503033224 | 7 | 0.0 | 0.0 | 0.00 | 0.00 | 0.00 | 59 | 1013.7 | |
| 20260503030423 | 7 | 0.0 | 0.0 | 0.00 | 0.00 | 0.00 | 59 | 1014.0 | |
| 20260503023223 | 7 | 0.0 | 0.0 | 0.00 | 0.00 | 0.00 | 60 | 1014.2 | |
| 20260503020423 | 7 | 0.0 | 0.0 | 0.00 | 0.00 | 0.00 | 58 | 1014.1 | |
| 20260503013223 | 8 | 0.0 | 0.0 | 0.00 | 0.00 | 0.00 | 56 | 1014.1 | |
| 20260503010423 | 8 | 0.0 | 0.0 | 0.00 | 0.00 | 0.00 | 59 | 1014.0 |